Location: Bonn
(50.7330°N, 7.1000°E)
Time: 16:11:06
(UTC+01:00)

Cosmos 1933 Rocket - Visible Passes

Search period start: 19 December 2014 00:00
Search period end: 29 December 2014 00:00
Orbit: 609 x 631 km, 82.5° (Epoch: 18 December)

Date Brightness Start Highest point End Pass type
(mag) Time Alt. Az. Time Alt. Az. Time Alt. Az.
20 Dec 6.3 07:01:04 10° NNE 07:03:06 13° ENE 07:05:08 10° E visible
21 Dec 6.0 07:17:44 10° NNE 07:21:04 20° ENE 07:24:23 10° ESE visible
22 Dec 5.3 07:34:53 10° N 07:38:55 32° ENE 07:42:54 10° SE visible
23 Dec 4.4 07:52:17 10° N 07:56:40 54° ENE 08:01:00 10° SSE visible
24 Dec 6.4 06:33:30 10° NNE 06:35:44 14° ENE 06:37:57 10° E visible
25 Dec 6.0 06:50:14 10° NNE 06:53:40 21° ENE 06:57:04 10° ESE visible
26 Dec 5.2 07:07:26 10° N 07:11:31 34° ENE 07:15:32 10° SE visible
27 Dec 4.2 07:24:50 10° N 07:29:15 58° ENE 07:33:35 10° SSE visible
28 Dec 6.4 06:05:55 10° NNE 06:08:20 14° ENE 06:10:44 10° E visible
28 Dec 3.6 07:42:25 10° NNW 07:46:52 82° W 07:51:16 10° S visible
